QPF
0.04 0.05 0.06 0.06 0.05 0.05 0.08 0.08 0.06 0.09 0.09 0.07 0.05 0.04 0.05 0.05 0.03 0.06 0.07 0.06 0.04 0.03 0.03 0.04 0.04 0.04 0.04 0.05 0.06 0.05 0.05 0.05 0.03 0.02 0.02 0.02 0.02 0.03 0.03 0.02 0.02 0.01 0.01
0.07 0.09 0.08 0.11 0.08 0.08 0.09 0.10 0.10 0.14 0.13 0.10 0.07 0.06 0.07 0.08 0.04 0.04 0.05 0.05 0.04 0.02 0.02 0.03 0.04 0.04 0.04 0.05 0.04 0.04 0.04 0.04 0.03 0.02 0.02 0.02 0.02 0.02 0.03 0.03 0.03 0.02 0.01
0.11 0.11 0.11 0.11 0.12 0.13 0.14 0.13 0.13 0.15 0.13 0.14 0.15 0.15 0.13 0.09 0.06 0.06 0.06 0.06 0.05 0.04 0.04 0.04 0.04 0.04 0.04 0.04 0.04 0.03 0.02 0.02 0.02 0.02 0.01 0.01 0.02 0.02 0.02 0.03 0.03 0.02 0.01
0.12 0.14 0.11 0.11 0.17 0.17 0.18 0.18 0.18 0.19 0.19 0.22 0.22 0.17 0.14 0.09 0.06 0.06 0.06 0.08 0.08 0.05 0.05 0.07 0.06 0.04 0.03 0.02 0.03 0.03 0.02 0.02 0.01 0.01 0.01 0.01 0.01 0.01 0.02 0.02 0.02 0.02 0.01
0.09 0.12 0.10 0.13 0.15 0.17 0.17 0.14 0.22 0.22 0.20 0.22 0.21 0.16 0.13 0.10 0.08 0.05 0.05 0.04 0.06 0.06 0.04 0.07 0.07 0.05 0.04 0.04 0.04 0.03 0.03 0.02 0.01 0.01 0.02 0.02 0.02 0.01 0.01 0.01 0.02 0.02 0.02
0.05 0.08 0.09 0.09 0.12 0.13 0.12 0.12 0.16 0.18 0.17 0.18 0.15 0.15 0.15 0.11 0.08 0.07 0.05 0.04 0.04 0.04 0.03 0.04 0.10 0.09 0.07 0.05 0.04 0.04 0.04 0.03 0.02 0.02 0.02 0.03 0.03 0.02 0.02 0.03 0.03 0.03 0.03
0.02 0.04 0.05 0.06 0.07 0.07 0.09 0.11 0.12 0.13 0.14 0.18 0.17 0.16 0.14 0.10 0.08 0.07 0.07 0.05 0.03 0.04 0.10 0.14 0.16 0.20 0.22 0.13 0.06 0.04 0.04 0.04 0.04 0.03 0.03 0.03 0.04 0.03 0.02 0.02 0.03 0.04 0.03
0.01 0.02 0.03 0.03 0.04 0.05 0.07 0.07 0.08 0.09 0.09 0.14 0.15 0.17 0.13 0.10 0.08 0.05 0.06 0.06 0.05 0.09 0.12 0.13 0.18 0.22 0.24 0.23 0.18 0.09 0.06 0.05 0.05 0.05 0.04 0.04 0.04 0.04 0.03 0.02 0.02 0.03 0.03
0.00 0.01 0.01 0.01 0.02 0.02 0.03 0.04 0.05 0.06 0.07 0.11 0.15 0.15 0.11 0.08 0.07 0.06 0.07 0.08 0.09 0.10 0.11 0.14 0.16 0.15 0.12 0.16 0.19 0.16 0.09 0.06 0.05 0.04 0.05 0.04 0.04 0.04 0.03 0.03 0.02 0.02 0.01
0.00 0.00 0.00 0.00 0.01 0.01 0.01 0.02 0.03 0.05 0.05 0.05 0.08 0.10 0.10 0.11 0.11 0.09 0.09 0.10 0.12 0.11 0.09 0.10 0.12 0.13 0.11 0.15 0.18 0.12 0.08 0.06 0.04 0.03 0.04 0.04 0.04 0.04 0.04 0.04 0.05 0.05 0.04
0.00 0.00 0.00 0.00 0.01 0.01 0.01 0.02 0.02 0.03 0.04 0.04 0.06 0.08 0.10 0.12 0.11 0.11 0.11 0.13 0.15 0.12 0.11 0.12 0.15 0.19 0.20 0.21 0.20 0.14 0.09 0.06 0.03 0.02 0.03 0.03 0.04 0.05 0.06 0.07 0.10 0.12 0.10
0.00 0.00 0.00 0.00 0.01 0.01 0.01 0.02 0.02 0.03 0.04 0.05 0.06 0.06 0.08 0.09 0.09 0.10 0.09 0.12 0.15 0.15 0.16 0.16 0.20 0.22 0.20 0.19 0.13 0.10 0.08 0.05 0.03 0.02 0.02 0.02 0.03 0.03 0.04 0.07 0.10 0.13 0.14
0.00 0.00 0.00 0.00 0.01 0.01 0.01 0.02 0.02 0.03 0.04 0.05 0.05 0.06 0.07 0.09 0.11 0.12 0.11 0.12 0.15 0.18 0.19 0.18 0.18 0.20 0.18 0.17 0.10 0.07 0.04 0.02 0.01 0.01 0.01 0.01 0.02 0.03 0.03 0.04 0.07 0.10 0.13
0.01 0.01 0.02 0.01 0.01 0.01 0.01 0.02 0.02 0.03 0.04 0.04 0.04 0.07 0.07 0.07 0.10 0.11 0.12 0.15 0.15 0.17 0.19 0.17 0.19 0.18 0.19 0.16 0.07 0.03 0.02 0.01 0.00 0.00 0.00 0.01 0.01 0.01 0.02 0.03 0.04 0.06 0.08
0.04 0.03 0.04 0.04 0.03 0.02 0.02 0.03 0.03 0.03 0.04 0.04 0.04 0.06 0.07 0.07 0.09 0.11 0.13 0.16 0.18 0.18 0.19 0.19 0.18 0.17 0.18 0.11 0.05 0.06 0.03 0.01 0.00 0.00 0.00 0.00 0.01 0.01 0.01 0.02 0.04 0.06 0.06
0.09 0.07 0.07 0.06 0.06 0.05 0.04 0.04 0.03 0.03 0.03 0.04 0.05 0.06 0.08 0.09 0.10 0.11 0.14 0.17 0.22 0.25 0.24 0.22 0.20 0.17 0.15 0.08 0.07 0.07 0.03 0.01 0.00 0.00 0.01 0.01 0.01 0.01 0.01 0.01 0.02 0.03 0.04
0.09 0.08 0.08 0.07 0.07 0.06 0.05 0.05 0.04 0.03 0.03 0.05 0.05 0.07 0.08 0.12 0.12 0.13 0.15 0.16 0.19 0.23 0.25 0.22 0.21 0.19 0.15 0.10 0.06 0.06 0.03 0.02 0.00 0.00 0.00 0.00 0.01 0.01 0.01 0.02 0.03 0.03 0.04
0.07 0.07 0.07 0.07 0.07 0.06 0.06 0.05 0.03 0.03 0.04 0.05 0.06 0.07 0.08 0.11 0.13 0.14 0.16 0.17 0.18 0.22 0.23 0.18 0.15 0.16 0.13 0.10 0.08 0.07 0.05 0.03 0.01 0.00 0.00 0.00 0.00 0.00 0.01 0.02 0.03 0.04 0.04
0.05 0.06 0.07 0.07 0.07 0.06 0.06 0.05 0.05 0.04 0.04 0.05 0.07 0.08 0.09 0.12 0.14 0.15 0.17 0.17 0.18 0.21 0.22 0.18 0.13 0.13 0.12 0.10 0.09 0.06 0.03 0.03 0.01 0.00 0.00 0.00 0.00 0.00 0.00 0.00 0.01 0.01 0.02
0.04 0.05 0.06 0.07 0.07 0.07 0.06 0.06 0.06 0.06 0.05 0.05 0.05 0.06 0.09 0.11 0.12 0.12 0.14 0.16 0.16 0.18 0.18 0.17 0.14 0.13 0.12 0.11 0.08 0.06 0.04 0.03 0.02 0.01 0.01 0.00 0.00 0.00 0.00 0.00 0.00 0.00 0.00
0.03 0.05 0.06 0.07 0.08 0.07 0.06 0.06 0.07 0.07 0.07 0.05 0.04 0.05 0.05 0.06 0.07 0.10 0.11 0.14 0.15 0.14 0.13 0.13 0.13 0.11 0.10 0.10 0.08 0.06 0.04 0.03 0.02 0.02 0.01 0.01 0.01 0.01 0.00 0.00 0.00 0.00 0.00
0.03 0.05 0.05 0.06 0.07 0.06 0.05 0.03 0.04 0.06 0.07 0.06 0.05 0.03 0.02 0.03 0.04 0.04 0.07 0.11 0.14 0.14 0.12 0.11 0.11 0.10 0.08 0.08 0.07 0.04 0.04 0.02 0.02 0.03 0.02 0.02 0.03 0.03 0.01 0.00 0.00 0.00 0.00
0.04 0.05 0.06 0.07 0.08 0.09 0.05 0.04 0.02 0.04 0.07 0.07 0.05 0.04 0.03 0.03 0.03 0.03 0.04 0.06 0.09 0.12 0.14 0.13 0.11 0.10 0.08 0.07 0.05 0.04 0.04 0.03 0.02 0.02 0.03 0.03 0.03 0.02 0.01 0.00 0.00 0.00 0.00
0.04 0.05 0.06 0.08 0.11 0.12 0.08 0.06 0.04 0.05 0.07 0.06 0.06 0.04 0.03 0.03 0.04 0.05 0.05 0.06 0.08 0.09 0.10 0.10 0.11 0.10 0.08 0.07 0.05 0.04 0.03 0.02 0.02 0.01 0.02 0.02 0.02 0.02 0.01 0.00 0.00 0.00 0.00
0.04 0.04 0.05 0.08 0.12 0.14 0.12 0.10 0.07 0.07 0.08 0.08 0.07 0.04 0.03 0.03 0.05 0.06 0.05 0.06 0.07 0.09 0.10 0.09 0.08 0.07 0.06 0.05 0.04 0.03 0.01 0.01 0.00 0.00 0.01 0.01 0.01 0.01 0.02 0.01 0.00 0.00 0.00
0.05 0.04 0.05 0.07 0.12 0.15 0.14 0.10 0.09 0.10 0.10 0.10 0.08 0.04 0.04 0.04 0.04 0.04 0.04 0.04 0.05 0.05 0.05 0.05 0.05 0.04 0.03 0.02 0.02 0.01 0.00 0.00 0.00 0.00 0.00 0.00 0.01 0.01 0.02 0.01 0.01 0.00 0.01
MSLP
1010.95 1011.11 1011.19 1011.21 1011.20 1011.20 1011.25 1011.34 1011.47 1011.61 1011.73 1011.80 1011.81 1011.77 1011.70 1011.62 1011.56 1011.56 1011.62 1011.74 1011.92 1012.12 1012.34 1012.56 1012.77 1012.96 1013.14 1013.33 1013.52 1013.72 1013.94 1014.17 1014.43 1014.71 1015.02 1015.34 1015.69 1016.06 1016.43 1016.80 1017.15 1017.49 1017.81
1010.59 1010.81 1010.94 1011.01 1011.04 1011.05 1011.07 1011.11 1011.18 1011.27 1011.35 1011.41 1011.43 1011.41 1011.37 1011.31 1011.26 1011.25 1011.27 1011.35 1011.47 1011.63 1011.81 1012.01 1012.21 1012.40 1012.59 1012.77 1012.95 1013.13 1013.31 1013.51 1013.73 1013.98 1014.26 1014.59 1014.95 1015.34 1015.75 1016.16 1016.55 1016.93 1017.28
1010.34 1010.60 1010.79 1010.91 1010.97 1010.99 1010.99 1011.00 1011.02 1011.06 1011.10 1011.14 1011.15 1011.15 1011.12 1011.07 1011.02 1010.97 1010.95 1010.96 1011.02 1011.12 1011.25 1011.42 1011.61 1011.81 1012.01 1012.20 1012.37 1012.53 1012.68 1012.84 1013.01 1013.23 1013.49 1013.80 1014.17 1014.58 1015.02 1015.47 1015.90 1016.32 1016.72
1010.16 1010.45 1010.68 1010.85 1010.95 1010.98 1010.97 1010.95 1010.92 1010.91 1010.91 1010.93 1010.94 1010.94 1010.91 1010.87 1010.80 1010.72 1010.64 1010.59 1010.57 1010.60 1010.69 1010.83 1011.01 1011.22 1011.43 1011.63 1011.80 1011.95 1012.07 1012.19 1012.32 1012.49 1012.71 1013.01 1013.37 1013.79 1014.25 1014.73 1015.21 1015.67 1016.11
1010.00 1010.31 1010.58 1010.78 1010.90 1010.95 1010.94 1010.89 1010.83 1010.78 1010.74 1010.73 1010.74 1010.74 1010.72 1010.67 1010.59 1010.47 1010.35 1010.23 1010.14 1010.11 1010.15 1010.25 1010.42 1010.63 1010.85 1011.06 1011.24 1011.38 1011.49 1011.57 1011.66 1011.78 1011.96 1012.22 1012.57 1012.98 1013.45 1013.96 1014.47 1014.97 1015.45
1009.84 1010.14 1010.42 1010.65 1010.80 1010.86 1010.85 1010.78 1010.69 1010.61 1010.55 1010.52 1010.52 1010.52 1010.51 1010.46 1010.37 1010.23 1010.07 1009.90 1009.75 1009.66 1009.65 1009.72 1009.87 1010.08 1010.31 1010.53 1010.71 1010.85 1010.94 1010.99 1011.05 1011.12 1011.26 1011.48 1011.79 1012.18 1012.65 1013.15 1013.68 1014.21 1014.72
1009.64 1009.93 1010.22 1010.46 1010.62 1010.69 1010.68 1010.61 1010.50 1010.39 1010.31 1010.27 1010.26 1010.27 1010.27 1010.24 1010.15 1010.01 1009.82 1009.61 1009.42 1009.28 1009.23 1009.26 1009.39 1009.58 1009.81 1010.03 1010.23 1010.36 1010.44 1010.48 1010.50 1010.54 1010.63 1010.80 1011.06 1011.42 1011.85 1012.35 1012.87 1013.40 1013.92
1009.44 1009.70 1009.97 1010.20 1010.37 1010.45 1010.44 1010.36 1010.24 1010.12 1010.03 1009.98 1009.98 1010.00 1010.02 1010.00 1009.93 1009.79 1009.60 1009.37 1009.15 1008.98 1008.88 1008.88 1008.98 1009.16 1009.38 1009.60 1009.79 1009.93 1010.01 1010.04 1010.03 1010.04 1010.09 1010.21 1010.42 1010.72 1011.11 1011.56 1012.06 1012.57 1013.09
1009.27 1009.48 1009.72 1009.93 1010.09 1010.17 1010.15 1010.06 1009.94 1009.81 1009.71 1009.66 1009.67 1009.70 1009.74 1009.75 1009.71 1009.59 1009.40 1009.17 1008.94 1008.74 1008.62 1008.59 1008.66 1008.81 1009.02 1009.24 1009.44 1009.58 1009.66 1009.69 1009.68 1009.66 1009.67 1009.75 1009.90 1010.14 1010.46 1010.85 1011.30 1011.77 1012.26
1009.17 1009.32 1009.51 1009.69 1009.82 1009.87 1009.85 1009.75 1009.61 1009.48 1009.37 1009.32 1009.33 1009.38 1009.44 1009.48 1009.46 1009.36 1009.20 1008.98 1008.75 1008.55 1008.41 1008.36 1008.42 1008.55 1008.75 1008.97 1009.17 1009.33 1009.43 1009.46 1009.46 1009.43 1009.42 1009.45 1009.55 1009.72 1009.97 1010.28 1010.65 1011.05 1011.49
1009.16 1009.23 1009.36 1009.48 1009.57 1009.60 1009.55 1009.43 1009.28 1009.13 1009.02 1008.96 1008.97 1009.02 1009.09 1009.14 1009.15 1009.08 1008.95 1008.76 1008.55 1008.36 1008.23 1008.18 1008.23 1008.37 1008.57 1008.79 1009.01 1009.19 1009.32 1009.38 1009.39 1009.37 1009.35 1009.36 1009.40 1009.50 1009.67 1009.89 1010.17 1010.50 1010.87
1009.23 1009.23 1009.27 1009.33 1009.36 1009.34 1009.25 1009.11 1008.94 1008.77 1008.64 1008.56 1008.55 1008.59 1008.66 1008.72 1008.75 1008.71 1008.61 1008.46 1008.29 1008.14 1008.04 1008.02 1008.09 1008.25 1008.46 1008.71 1008.96 1009.18 1009.34 1009.44 1009.49 1009.50 1009.48 1009.47 1009.48 1009.52 1009.61 1009.75 1009.93 1010.17 1010.45
1009.35 1009.26 1009.23 1009.20 1009.16 1009.08 1008.95 1008.77 1008.57 1008.37 1008.21 1008.11 1008.07 1008.09 1008.13 1008.19 1008.22 1008.20 1008.14 1008.04 1007.93 1007.84 1007.80 1007.84 1007.96 1008.16 1008.42 1008.72 1009.01 1009.28 1009.49 1009.65 1009.75 1009.79 1009.80 1009.79 1009.78 1009.78 1009.80 1009.86 1009.95 1010.10 1010.30
1009.47 1009.30 1009.18 1009.07 1008.96 1008.81 1008.62 1008.40 1008.16 1007.93 1007.73 1007.59 1007.51 1007.48 1007.50 1007.53 1007.56 1007.56 1007.54 1007.50 1007.46 1007.46 1007.50 1007.62 1007.82 1008.09 1008.42 1008.78 1009.13 1009.46 1009.74 1009.96 1010.12 1010.22 1010.27 1010.28 1010.28 1010.25 1010.23 1010.22 1010.24 1010.30 1010.42
1009.54 1009.30 1009.09 1008.90 1008.71 1008.50 1008.26 1007.99 1007.71 1007.43 1007.20 1007.01 1006.88 1006.81 1006.78 1006.78 1006.80 1006.81 1006.83 1006.85 1006.90 1006.99 1007.14 1007.36 1007.66 1008.02 1008.43 1008.86 1009.28 1009.68 1010.02 1010.31 1010.54 1010.70 1010.81 1010.87 1010.89 1010.87 1010.83 1010.79 1010.75 1010.75 1010.80
1009.53 1009.22 1008.94 1008.68 1008.42 1008.15 1007.85 1007.54 1007.22 1006.91 1006.64 1006.40 1006.23 1006.10 1006.03 1006.00 1005.99 1006.01 1006.06 1006.15 1006.28 1006.47 1006.74 1007.07 1007.48 1007.94 1008.43 1008.93 1009.42 1009.88 1010.29 1010.64 1010.93 1011.17 1011.34 1011.46 1011.53 1011.55 1011.53 1011.48 1011.42 1011.38 1011.38
1009.41 1009.06 1008.73 1008.41 1008.09 1007.76 1007.42 1007.07 1006.73 1006.39 1006.09 1005.82 1005.60 1005.43 1005.31 1005.25 1005.22 1005.25 1005.33 1005.47 1005.68 1005.97 1006.34 1006.78 1007.29 1007.84 1008.40 1008.97 1009.51 1010.01 1010.47 1010.87 1011.22 1011.52 1011.77 1011.97 1012.11 1012.19 1012.22 1012.20 1012.15 1012.10 1012.08
1009.20 1008.82 1008.45 1008.09 1007.73 1007.36 1006.99 1006.62 1006.26 1005.91 1005.59 1005.30 1005.05 1004.86 1004.71 1004.61 1004.58 1004.61 1004.71 1004.90 1005.18 1005.55 1006.00 1006.53 1007.11 1007.73 1008.34 1008.94 1009.51 1010.04 1010.52 1010.96 1011.36 1011.72 1012.04 1012.32 1012.54 1012.71 1012.81 1012.85 1012.85 1012.82 1012.80
1008.90 1008.52 1008.13 1007.74 1007.35 1006.96 1006.57 1006.19 1005.83 1005.48 1005.16 1004.87 1004.62 1004.42 1004.26 1004.15 1004.11 1004.15 1004.27 1004.50 1004.83 1005.25 1005.77 1006.35 1006.98 1007.63 1008.27 1008.88 1009.45 1009.97 1010.45 1010.90 1011.33 1011.73 1012.12 1012.47 1012.79 1013.05 1013.25 1013.37 1013.44 1013.46 1013.46
1008.54 1008.16 1007.77 1007.37 1006.96 1006.56 1006.17 1005.79 1005.44 1005.11 1004.81 1004.55 1004.32 1004.12 1003.98 1003.88 1003.85 1003.90 1004.05 1004.30 1004.66 1005.12 1005.67 1006.28 1006.93 1007.58 1008.21 1008.80 1009.34 1009.83 1010.29 1010.73 1011.16 1011.59 1012.02 1012.44 1012.85 1013.20 1013.50 1013.72 1013.87 1013.96 1014.01
1008.12 1007.76 1007.37 1006.96 1006.55 1006.15 1005.76 1005.39 1005.07 1004.77 1004.52 1004.30 1004.11 1003.96 1003.85 1003.78 1003.78 1003.86 1004.03 1004.31 1004.69 1005.17 1005.73 1006.34 1006.97 1007.60 1008.20 1008.74 1009.23 1009.68 1010.09 1010.50 1010.91 1011.35 1011.81 1012.28 1012.75 1013.20 1013.59 1013.91 1014.14 1014.31 1014.41
1007.62 1007.29 1006.91 1006.51 1006.10 1005.70 1005.32 1004.98 1004.69 1004.44 1004.24 1004.09 1003.96 1003.87 1003.82 1003.81 1003.86 1003.98 1004.18 1004.48 1004.88 1005.36 1005.91 1006.51 1007.12 1007.71 1008.26 1008.74 1009.18 1009.56 1009.92 1010.28 1010.66 1011.09 1011.55 1012.05 1012.57 1013.08 1013.54 1013.94 1014.26 1014.50 1014.66
1007.05 1006.74 1006.38 1005.99 1005.59 1005.20 1004.84 1004.53 1004.28 1004.09 1003.96 1003.88 1003.84 1003.83 1003.85 1003.92 1004.02 1004.19 1004.44 1004.76 1005.17 1005.66 1006.20 1006.78 1007.36 1007.91 1008.40 1008.84 1009.21 1009.54 1009.84 1010.15 1010.49 1010.88 1011.33 1011.83 1012.37 1012.91 1013.42 1013.88 1014.26 1014.56 1014.77
1006.40 1006.12 1005.78 1005.40 1005.02 1004.65 1004.32 1004.05 1003.85 1003.72 1003.66 1003.67 1003.71 1003.79 1003.90 1004.04 1004.22 1004.45 1004.73 1005.09 1005.52 1006.01 1006.55 1007.10 1007.65 1008.17 1008.62 1009.01 1009.34 1009.62 1009.87 1010.13 1010.43 1010.78 1011.20 1011.68 1012.20 1012.74 1013.27 1013.76 1014.18 1014.51 1014.77
1005.69 1005.43 1005.11 1004.76 1004.40 1004.06 1003.77 1003.55 1003.40 1003.35 1003.37 1003.45 1003.58 1003.75 1003.94 1004.16 1004.40 1004.69 1005.02 1005.41 1005.86 1006.35 1006.89 1007.43 1007.96 1008.45 1008.89 1009.25 1009.55 1009.80 1010.02 1010.24 1010.49 1010.80 1011.17 1011.61 1012.10 1012.62 1013.13 1013.61 1014.04 1014.40 1014.68
1004.95 1004.72 1004.43 1004.11 1003.78 1003.49 1003.25 1003.08 1003.00 1003.01 1003.10 1003.26 1003.47 1003.71 1003.98 1004.26 1004.57 1004.90 1005.27 1005.69 1006.15 1006.65 1007.18 1007.72 1008.24 1008.72 1009.15 1009.50 1009.79 1010.03 1010.23 1010.43 1010.65 1010.92 1011.24 1011.63 1012.06 1012.53 1013.01 1013.47 1013.89 1014.25 1014.54
Thickness
5778 5777 5774 5772 5769 5767 5766 5764 5763 5763 5761 5760 5760 5761 5761 5761 5761 5762 5762 5761 5760 5759 5758 5757 5756 5755 5755 5754 5753 5753 5752 5751 5750 5749 5747 5745 5744 5742 5740 5739 5737 5735 5733
5775 5772 5769 5766 5764 5763 5761 5760 5759 5757 5756 5755 5755 5756 5756 5757 5757 5757 5757 5758 5757 5756 5755 5754 5754 5754 5753 5753 5753 5752 5752 5751 5751 5750 5748 5747 5745 5743 5742 5741 5739 5737 5735
5771 5767 5763 5761 5760 5759 5758 5756 5754 5753 5751 5751 5750 5750 5750 5751 5752 5753 5753 5753 5753 5752 5753 5752 5752 5752 5751 5751 5751 5751 5751 5750 5750 5750 5749 5748 5746 5745 5743 5742 5741 5739 5737
5766 5763 5759 5758 5757 5756 5754 5752 5749 5747 5745 5744 5744 5743 5744 5745 5747 5748 5748 5748 5748 5749 5750 5750 5750 5750 5749 5748 5749 5749 5750 5749 5749 5749 5748 5748 5747 5746 5744 5743 5742 5740 5739
5762 5759 5756 5754 5753 5752 5750 5748 5748 5744 5741 5740 5740 5740 5740 5741 5743 5744 5744 5745 5745 5746 5748 5747 5747 5746 5746 5745 5746 5747 5747 5748 5748 5748 5747 5747 5746 5746 5745 5744 5743 5741 5740
5758 5755 5752 5751 5750 5748 5746 5745 5742 5741 5739 5736 5736 5737 5738 5739 5740 5741 5741 5742 5743 5743 5744 5744 5744 5743 5742 5742 5742 5743 5744 5745 5745 5745 5745 5745 5745 5745 5744 5744 5743 5742 5740
5753 5750 5748 5747 5746 5744 5743 5741 5739 5736 5735 5734 5730 5729 5733 5736 5738 5739 5739 5738 5740 5741 5740 5740 5740 5739 5736 5737 5739 5739 5740 5741 5741 5742 5742 5743 5743 5743 5743 5743 5742 5741 5740
5749 5748 5745 5742 5742 5740 5739 5738 5736 5732 5731 5731 5725 5720 5720 5725 5731 5737 5737 5735 5736 5737 5737 5736 5735 5733 5731 5733 5735 5735 5735 5736 5736 5737 5738 5739 5740 5740 5741 5741 5740 5740 5739
5745 5743 5740 5739 5737 5736 5734 5734 5732 5729 5725 5726 5724 5717 5712 5713 5721 5729 5732 5733 5733 5732 5733 5732 5732 5731 5730 5730 5732 5731 5730 5730 5731 5731 5733 5735 5736 5737 5737 5738 5738 5738 5737
5741 5739 5737 5735 5733 5732 5731 5730 5731 5726 5723 5720 5721 5720 5717 5715 5709 5713 5721 5726 5727 5727 5727 5728 5729 5729 5728 5727 5726 5725 5725 5724 5724 5725 5728 5729 5731 5732 5733 5734 5735 5735 5735
5737 5736 5735 5732 5730 5728 5727 5726 5724 5722 5720 5717 5716 5715 5713 5712 5710 5705 5706 5713 5717 5721 5722 5723 5723 5722 5722 5721 5719 5717 5717 5717 5718 5719 5721 5723 5725 5726 5728 5730 5731 5732 5732
5731 5732 5731 5729 5726 5724 5723 5721 5720 5718 5717 5715 5713 5711 5708 5706 5705 5703 5702 5704 5706 5712 5716 5717 5716 5714 5714 5714 5713 5710 5709 5710 5711 5712 5713 5715 5718 5719 5722 5724 5726 5728 5728
5722 5725 5726 5723 5721 5719 5718 5717 5715 5714 5713 5712 5710 5709 5708 5707 5706 5703 5700 5700 5701 5704 5707 5708 5709 5709 5708 5707 5703 5702 5701 5702 5703 5704 5705 5707 5709 5711 5714 5717 5720 5722 5723
5714 5717 5717 5717 5716 5714 5713 5712 5710 5710 5710 5709 5708 5707 5705 5705 5705 5703 5699 5696 5693 5695 5697 5699 5701 5703 5702 5699 5696 5695 5693 5694 5695 5696 5697 5699 5701 5703 5705 5708 5711 5714 5716
5704 5706 5706 5707 5708 5708 5707 5706 5704 5705 5705 5705 5704 5704 5703 5703 5703 5703 5701 5697 5691 5687 5688 5692 5692 5694 5694 5692 5689 5687 5685 5686 5686 5687 5688 5690 5692 5694 5696 5698 5701 5703 5705
5689 5692 5694 5696 5698 5699 5700 5700 5699 5700 5700 5700 5700 5699 5699 5699 5700 5700 5698 5696 5693 5688 5685 5687 5688 5687 5687 5685 5681 5679 5677 5677 5677 5678 5679 5681 5682 5684 5686 5687 5690 5692 5694
5675 5678 5681 5684 5687 5689 5691 5692 5693 5694 5694 5695 5695 5695 5695 5695 5695 5695 5695 5693 5691 5688 5682 5681 5682 5680 5678 5676 5673 5671 5670 5669 5668 5669 5670 5671 5672 5673 5674 5676 5678 5680 5682
5659 5663 5667 5671 5675 5679 5682 5683 5686 5688 5688 5688 5689 5689 5690 5691 5690 5691 5690 5689 5688 5686 5681 5675 5673 5671 5670 5669 5667 5665 5664 5661 5659 5659 5660 5660 5661 5662 5663 5665 5667 5668 5670
5643 5647 5652 5657 5662 5667 5671 5674 5677 5680 5682 5683 5683 5683 5684 5684 5684 5685 5685 5685 5684 5682 5679 5672 5667 5665 5663 5662 5660 5659 5657 5654 5653 5650 5650 5650 5651 5651 5653 5654 5656 5657 5659
5626 5631 5636 5642 5647 5653 5659 5664 5668 5671 5674 5675 5677 5677 5679 5679 5679 5680 5680 5679 5678 5675 5671 5666 5661 5657 5655 5655 5653 5650 5648 5648 5646 5645 5643 5642 5641 5642 5643 5644 5646 5647 5648
5608 5613 5618 5625 5632 5638 5646 5652 5656 5661 5665 5666 5668 5669 5670 5672 5673 5674 5674 5673 5671 5668 5664 5660 5655 5651 5648 5647 5646 5646 5643 5642 5640 5639 5636 5634 5634 5633 5633 5634 5636 5638 5639
5586 5591 5597 5604 5612 5622 5630 5635 5641 5647 5653 5656 5657 5659 5661 5662 5664 5665 5666 5666 5666 5663 5659 5655 5651 5647 5644 5643 5643 5642 5639 5636 5632 5633 5633 5630 5630 5628 5627 5627 5628 5630 5631
5564 5569 5575 5583 5592 5602 5609 5617 5624 5632 5639 5644 5648 5649 5652 5654 5654 5655 5656 5657 5657 5656 5656 5653 5647 5644 5641 5640 5638 5636 5634 5632 5631 5631 5629 5625 5625 5622 5621 5620 5621 5623 5625
5545 5550 5556 5564 5573 5583 5591 5599 5609 5617 5626 5633 5638 5640 5642 5643 5645 5646 5647 5646 5645 5645 5646 5644 5641 5639 5636 5635 5634 5632 5629 5628 5628 5627 5627 5620 5619 5617 5616 5614 5616 5618 5619
5533 5537 5543 5549 5557 5566 5574 5582 5591 5602 5612 5620 5626 5631 5632 5633 5634 5636 5637 5635 5634 5633 5633 5633 5632 5629 5628 5627 5627 5625 5622 5620 5618 5619 5622 5619 5615 5613 5611 5610 5611 5612 5613
5525 5529 5534 5539 5545 5554 5561 5568 5577 5589 5600 5607 5614 5619 5621 5623 5623 5626 5627 5627 5625 5623 5623 5622 5620 5619 5618 5618 5619 5619 5618 5617 5614 5613 5616 5616 5613 5612 5608 5609 5609 5608 5608